Monett, MO

2:45 PM CDT on October 18, 2019 (GMT -0500)
Monett

Weather History for KHFJ - August, 2019

Change the Weather History Date:

Thursday, August 22, 2019

  Actual Average (KJLN) Record (KJLN)
Temperature  
Mean Temperature 73 °F -  
Max Temperature 78 °F 89 °F 103 °F (1983)
Min Temperature 68 °F 68 °F 53 °F (1949)
Cooling Degree Days 8    
Growing Degree Days 23 (Base 50)    
Moisture  
Dew Point 69 °F    
Average Humidity 89    
Maximum Humidity 100    
Minimum Humidity 69    
Precipitation  
Precipitation 1.48 in - - ()
Sea Level Pressure  
Sea Level Pressure 30.00 in    
Wind  
Wind Speed 7 mph ()    
Max Wind Speed 15 mph    
Max Gust Speed 20 mph    
Visibility 9.6 miles    
Events Rain , Thunderstorm    
Averages and records for this station are not official NWS values.
T = Trace of Precipitation, MM = Missing Value Source: Averaged Metar Reports

Daily Weather History Graph

Daily Weather History Graph

Search for Another Location

Airport or City:

Astronomy

Aug. 22, 2019 Rise Set
Actual Time 6:38 AM CDT 7:58 PM CDT
Civil Twilight 6:11 AM CDT 8:25 PM CDT
Nautical Twilight 5:39 AM CDT 8:58 PM CDT
Astronomical Twilight 5:05 AM CDT 9:31 PM CDT
Moon 11:59 PM CDT (8/22) 1:05 PM CDT (8/22)
Length of Visible Light 14h 14m
Length of Day
13h 20m
Waning Gibbous, 59% of the Moon is Illuminated
Aug 22
Waning Gibbous
Aug 23
Last Quarter
Aug 30
New
Sep 5
First Quarter
Sep 13
Full

Hourly Weather History & Observations

Time (CDT) Temp. Dew Point Humidity Pressure Visibility Wind Dir Wind Speed Gust Speed Precip Events Conditions
12:15 AM 71.6 °F 68.0 °F 88% 30.04 in 10.0 mi North 15.0 mph 19.6 mph N/A Thunderstorm Mostly Cloudy
12:35 AM 73.4 °F 68.0 °F 83% 30.03 in 10.0 mi NE 10.4 mph - N/A   Scattered Clouds
12:55 AM 73.4 °F 68.0 °F 83% 30.02 in 10.0 mi ENE 10.4 mph - N/A   Scattered Clouds
1:15 AM 71.6 °F 68.0 °F 88% 30.00 in 10.0 mi East 11.5 mph - N/A   Clear
1:35 AM 71.6 °F 68.0 °F 88% 29.99 in 10.0 mi East 8.1 mph - N/A   Clear
1:55 AM 71.6 °F 68.0 °F 88% 29.98 in 10.0 mi East 9.2 mph - N/A Thunderstorm Clear
2:15 AM 71.6 °F 68.0 °F 88% 29.97 in 10.0 mi East 8.1 mph - N/A Thunderstorm Clear
2:35 AM 71.6 °F 68.0 °F 88% 29.97 in 10.0 mi ESE 6.9 mph - N/A Thunderstorm Scattered Clouds
2:55 AM 71.6 °F 68.0 °F 88% 29.99 in 10.0 mi NW 9.2 mph - N/A Thunderstorm Mostly Cloudy
3:15 AM 71.6 °F 69.8 °F 94% 30.02 in 10.0 mi WNW 10.4 mph - N/A Rain , Thunderstorm Light Thunderstorms and Rain
3:35 AM 69.8 °F 69.8 °F 100% 30.01 in 2.0 mi North 9.2 mph - 0.67 in Rain , Thunderstorm Heavy Thunderstorms and Rain
3:55 AM 69.8 °F 69.8 °F 100% 30.02 in 5.0 mi NNW 8.1 mph - 0.74 in Rain , Thunderstorm Thunderstorms and Rain
4:15 AM 69.8 °F 69.8 °F 100% 30.04 in 4.0 mi WNW 12.7 mph 17.3 mph 0.15 in Rain , Thunderstorm Heavy Thunderstorms and Rain
4:35 AM 68.0 °F 68.0 °F 100% 30.03 in 4.0 mi NW 4.6 mph - 0.44 in Rain , Thunderstorm Heavy Thunderstorms and Rain
4:55 AM 69.8 °F 69.8 °F 100% 30.02 in 7.0 mi NW 9.2 mph - 0.58 in Rain , Thunderstorm Heavy Thunderstorms and Rain
5:15 AM 68.0 °F 68.0 °F 100% 30.03 in 10.0 mi West 10.4 mph - 0.03 in Rain , Thunderstorm Thunderstorms and Rain
5:35 AM 68.0 °F 68.0 °F 100% 30.02 in 10.0 mi Calm Calm - 0.05 in Rain , Thunderstorm Light Thunderstorms and Rain
5:55 AM 68.0 °F 68.0 °F 100% 30.01 in 10.0 mi SE 3.5 mph - 0.07 in Rain , Thunderstorm Light Thunderstorms and Rain
6:15 AM 68.0 °F 68.0 °F 100% 30.01 in 10.0 mi SE 3.5 mph - 0.01 in Rain , Thunderstorm Light Thunderstorms and Rain
6:35 AM 68.0 °F 68.0 °F 100% 30.02 in 10.0 mi SSE 4.6 mph - 0.02 in Rain , Thunderstorm Light Thunderstorms and Rain
6:55 AM 68.0 °F 68.0 °F 100% 30.01 in 10.0 mi Calm Calm - 0.04 in Rain Light Rain
7:15 AM 68.0 °F 68.0 °F 100% 30.03 in 10.0 mi SSE 11.5 mph 18.4 mph N/A   Overcast
7:35 AM 68.0 °F 68.0 °F 100% 30.02 in 10.0 mi SE 8.1 mph - N/A   Overcast
7:55 AM 68.0 °F 68.0 °F 100% 30.00 in 10.0 mi ESE 5.8 mph - N/A   Mostly Cloudy
8:15 AM 68.0 °F 68.0 °F 100% 30.00 in 10.0 mi SE 8.1 mph - N/A   Scattered Clouds
8:35 AM 68.0 °F 68.0 °F 100% 30.02 in 10.0 mi SSE 8.1 mph - N/A   Overcast
8:55 AM 68.0 °F 68.0 °F 100% 30.04 in 10.0 mi SSW 13.8 mph - N/A   Overcast
9:15 AM 68.0 °F 68.0 °F 100% 30.03 in 10.0 mi South 11.5 mph - N/A   Drizzle
9:40 AM 68.0 °F 68.0 °F 100% 30.02 in 10.0 mi South 9.2 mph - 0.02 in Rain Light Rain
9:55 AM 68.0 °F 68.0 °F 100% 30.01 in 10.0 mi SSE 5.8 mph - 0.04 in Rain Rain
10:15 AM 68.0 °F 68.0 °F 100% 30.03 in 10.0 mi South 9.2 mph - 0.01 in Rain Light Rain
10:35 AM 69.8 °F 69.8 °F 100% 30.02 in 10.0 mi SE 4.6 mph - 0.01 in   Mostly Cloudy
11:15 AM 71.6 °F 69.8 °F 94% 30.02 in 10.0 mi Calm Calm - N/A   Clear
11:35 AM 71.6 °F 69.8 °F 94% 30.01 in 10.0 mi Calm Calm - N/A   Scattered Clouds
11:55 AM 71.6 °F 69.8 °F 94% 30.03 in 10.0 mi SE 3.5 mph - N/A   Scattered Clouds
12:35 PM 73.4 °F 69.8 °F 88% 30.01 in 10.0 mi Calm Calm - N/A   Scattered Clouds
12:55 PM 77.0 °F 69.8 °F 78% 30.01 in 10.0 mi Calm Calm - N/A   Scattered Clouds
1:15 PM 77.0 °F 69.8 °F 78% 30.00 in 10.0 mi Calm Calm - N/A   Scattered Clouds
1:35 PM 77.0 °F 68.0 °F 74% 30.00 in 10.0 mi Calm Calm - N/A   Scattered Clouds
1:55 PM 78.8 °F 68.0 °F 69% 30.00 in 10.0 mi North 4.6 mph - N/A   Mostly Cloudy
2:15 PM 78.8 °F 68.0 °F 69% 30.00 in 10.0 mi NNE 3.5 mph - N/A   Scattered Clouds
2:35 PM 78.8 °F 68.0 °F 69% 30.00 in 10.0 mi North 6.9 mph - N/A   Mostly Cloudy
2:55 PM 78.8 °F 68.0 °F 69% 30.00 in 10.0 mi North 4.6 mph - N/A   Mostly Cloudy
3:15 PM 78.8 °F 69.8 °F 74% 30.00 in 10.0 mi North 4.6 mph - N/A   Mostly Cloudy
3:35 PM 78.8 °F 69.8 °F 74% 29.99 in 10.0 mi North 4.6 mph - N/A   Mostly Cloudy
3:55 PM 78.8 °F 69.8 °F 74% 29.98 in 10.0 mi North 5.8 mph - N/A   Mostly Cloudy
4:15 PM 78.8 °F 69.8 °F 74% 29.97 in 10.0 mi North 5.8 mph - N/A   Mostly Cloudy
4:35 PM 78.8 °F 69.8 °F 74% 29.97 in 10.0 mi NNE 6.9 mph - N/A   Mostly Cloudy
4:55 PM 78.8 °F 68.0 °F 69% 29.97 in 10.0 mi NNE 6.9 mph - N/A   Mostly Cloudy
5:15 PM 78.8 °F 69.8 °F 74% 29.96 in 10.0 mi NE 4.6 mph - N/A   Mostly Cloudy
5:35 PM 78.8 °F 69.8 °F 74% 29.96 in 10.0 mi NE 6.9 mph - N/A   Scattered Clouds
5:55 PM 78.8 °F 69.8 °F 74% 29.95 in 10.0 mi ENE 5.8 mph - N/A   Clear
6:15 PM 78.8 °F 69.8 °F 74% 29.94 in 10.0 mi ENE 9.2 mph - N/A   Clear
6:35 PM 78.8 °F 69.8 °F 74% 29.94 in 10.0 mi ENE 9.2 mph - N/A   Clear
6:55 PM 78.8 °F 68.0 °F 69% 29.95 in 10.0 mi East 8.1 mph - N/A   Clear
7:15 PM 77.0 °F 68.0 °F 74% 29.96 in 10.0 mi ENE 3.5 mph - N/A   Mostly Cloudy
7:35 PM 77.0 °F 69.8 °F 78% 29.96 in 10.0 mi East 4.6 mph - N/A   Mostly Cloudy
7:55 PM 75.2 °F 69.8 °F 83% 29.95 in 10.0 mi ENE 3.5 mph - N/A   Scattered Clouds
8:15 PM 73.4 °F 69.8 °F 88% 29.95 in 10.0 mi East 5.8 mph - N/A   Scattered Clouds
8:35 PM 73.4 °F 69.8 °F 88% 29.95 in 10.0 mi East 5.8 mph - N/A   Mostly Cloudy
8:55 PM 73.4 °F 69.8 °F 88% 29.96 in 10.0 mi East 5.8 mph - N/A   Mostly Cloudy
9:15 PM 73.4 °F 71.6 °F 94% 29.98 in 10.0 mi SE 3.5 mph - N/A   Scattered Clouds
9:35 PM 71.6 °F 71.6 °F 100% 29.99 in 10.0 mi ESE 4.6 mph - N/A   Clear
9:55 PM 71.6 °F 71.6 °F 100% 29.98 in 10.0 mi ENE 5.8 mph - N/A   Clear
10:35 PM 71.6 °F 71.6 °F 100% 29.97 in 10.0 mi East 4.6 mph - N/A   Scattered Clouds
10:55 PM 71.6 °F 71.6 °F 100% 29.97 in 10.0 mi Calm Calm - N/A   Scattered Clouds
11:15 PM 71.6 °F 71.6 °F 100% 29.98 in 10.0 mi Calm Calm - N/A   Scattered Clouds
11:35 PM 71.6 °F 71.6 °F 100% 29.98 in 10.0 mi ENE 4.6 mph - N/A   Scattered Clouds
11:55 PM 71.6 °F 71.6 °F 100% 29.99 in 10.0 mi ENE 4.6 mph - N/A Thunderstorm Mostly Cloudy